Погода в Починке

Россия / Смоленская область     54°48′54″N   33°28′28″E
темп.,
°C
ветер,
м/с
пор.,
м/с
влажн.,
%
обл.,
%
осадки,
мм/ч
давл.,
гПа
погр.,
м
22 октября, пт
пт2200:00+12юз71665100 0.0 995959
03:00+12юз81773100 0.0 9941331
06:00+10зюз6137418 0.1 996964
09:00+9юз8167689 0.1 9971486
12:00+10з816648 0.2 9991787
15:00+9зюз816595 0.4 10011753
18:00+7зюз6136560 0.0 10031253
21:00+7зюз61369100 0.0 10041183
23 октября, сб
сб2300:00+6юз61270100 0.0 10041035
03:00+6юз6137072 0.0 10031063
06:00+5юз7147086 0.0 10031024
09:00+5юз6117999 0.1 10041015
12:00+7зюз6117248 0.3 10051280
15:00+6зюз610675 0.4 10061263
18:00+5зюз51067100 0.1 10081363
21:00+5зюз5118286 0.1 10091054
24 октября, вс
вс2400:00+5зюз61282100 0.1 10101041
03:00+3з51096100 0.6 1012847
06:00+2зсз51094100 0.2 1014840
09:00+2зсз51196100 0.7 1015748
12:00+2зсз51196100 0.8 1017747
15:00+3сз6107168 1.1 10191250
18:00+1сз5117829 0.1 1023908
21:000ссз511835 0.1 1025645
25 октября, пн
пн2500:00−1ссз411855 0.0 1028525
03:00−2сз38925 0.0 1029363
06:00−2сз379138 0.0 1030269
09:00−1сз2581100 0.0 1032268
12:00+2зсз23567 0.0 1032591
15:00+4зюз34495 0.0 1031726
18:000юз367465 0.0 1032116
21:00−1юз310795 0.0 1031232
26 октября, вт
вт2600:00−1юз411771 0.0 1031295
03:00−1юз4127629 0.0 1030331
06:00−1юз4137387 0.0 1028354
09:000юз51466100 0.0 1027441
12:00+4юз5135292 0.0 1025573
15:00+6юз61453100 0.0 1023793
18:00+3юз51562100 0.0 1022586
21:00+3юз61664100 0.0 1020593